This is the latest recevied weather packets stored in our database for station/object KI6PPU. If no packets are shown the sender has not sent any weather packets the latest 1 day(s).
| Time | Temp. | Humidity | Pressure | Rain* | Wind** | Luminosity | Snow |
|---|---|---|---|---|---|---|---|
| 1778085105 | 16.11° C | 84% | 1022.9 hPa | 0 mm | - | 171 W/m² | - |
| 1778084499 | 16.11° C | 84% | 1023 hPa | 0 mm | - | 160 W/m² | - |
| 1778084196 | 16.11° C | 84% | 1022.9 hPa | 0 mm | - | 165 W/m² | - |
| 1778083287 | 15° C | 88% | 1022.9 hPa | 0 mm | - | 164 W/m² | - |
| 1778081545 | 14.44° C | 90% | 1023 hPa | 0 mm | - | 105 W/m² | - |
| 1778080334 | 13.33° C | 96% | 1022.9 hPa | 0 mm | - | 81 W/m² | - |
| 1778077911 | 12.78° C | 97% | 1022.7 hPa | 0 mm | - | 35 W/m² | - |
| 1778076097 | 12.22° C | 97% | 1022.6 hPa | 0 mm | - | 17 W/m² | - |
| 1778074882 | 12.22° C | 97% | 1022.3 hPa | 0 mm | - | 10 W/m² | - |
| 1778074580 | 12.22° C | 97% | 1022.2 hPa | 0 mm | - | 9 W/m² | - |
| 1778073671 | 12.22° C | 97% | 1022.3 hPa | 0 mm | - | 1 W/m² | - |
| 1778071552 | 12.22° C | 97% | 1022.1 hPa | 0 mm | - | 0 W/m² | - |
| 1778070040 | 12.22° C | 97% | 1021.9 hPa | 0 mm | - | 0 W/m² | - |
| 1778069433 | 12.22° C | 97% | 1021.9 hPa | 0 mm | - | 0 W/m² | - |
| 1778068526 | 12.22° C | 97% | 1021.7 hPa | 0 mm | - | 0 W/m² | - |
| 1778067620 | 12.22° C | 97% | 1021.9 hPa | 0 mm | - | 0 W/m² | - |
| 1778067015 | 12.22° C | 97% | 1021.7 hPa | 0 mm | - | 0 W/m² | - |
| 1778066711 | 12.22° C | 97% | 1021.7 hPa | 0 mm | - | 0 W/m² | - |
| 1778066107 | 12.22° C | 97% | 1021.6 hPa | 0 mm | - | 0 W/m² | - |
| 1778065501 | 12.22° C | 97% | 1021.7 hPa | 0 mm | - | 0 W/m² | - |
| 1778064894 | 12.22° C | 97% | 1021.5 hPa | 0 mm | - | 0 W/m² | - |
| 1778063684 | 12.22° C | 97% | 1021.4 hPa | 0 mm | - | 0 W/m² | - |
| 1778063079 | 12.22° C | 96% | 1021.3 hPa | 0 mm | - | 0 W/m² | - |
| 1778062776 | 12.22° C | 96% | 1021.2 hPa | 0 mm | - | 0 W/m² | - |
| 1778062170 | 12.22° C | 97% | 1021.2 hPa | 0 mm | - | 0 W/m² | - |
* Rain latest hour (hover to see other rain measurements)
** Current wind speed in m/s (hover to see current wind gust speed)